Location: Grand Rapids
(42.9630°N, 85.6680°W)
Time: 02:18:40
(UTC-04:00)

A-11 Canister half - Visible Passes

Search period start: 30 May 2024 00:00
Search period end: 09 June 2024 00:00
Orbit: 1525 x 1683 km, 47.3° (Epoch: 29 May)

Date Brightness Start Highest point End Pass type
(mag) Time Alt. Az. Time Alt. Az. Time Alt. Az.
30 May 9.2 00:17:05 10° WNW 00:26:33 70° N 00:36:19 10° E visible
30 May 8.9 02:22:20 10° WNW 02:31:54 74° SSW 02:41:47 10° SE visible
30 May 9.7 04:28:10 10° WNW 04:35:55 28° SW 04:43:51 10° S visible
30 May 9.2 21:49:39 10° WSW 21:59:01 81° NNW 22:08:39 10° ENE visible
30 May 9.3 23:55:18 10° WNW 00:04:45 70° N 00:14:29 10° E visible
31 May 8.9 02:00:35 10° WNW 02:10:08 77° SSW 02:20:01 10° SE visible
31 May 9.7 04:06:19 10° WNW 04:14:12 29° SW 04:22:20 10° S visible
31 May 9.3 23:33:32 10° WNW 23:42:57 69° N 23:52:40 10° E visible
01 Jun 8.9 01:38:50 10° WNW 01:48:22 79° SSW 01:58:15 10° SE visible
01 Jun 9.6 03:44:28 10° WNW 03:52:31 31° SW 04:00:46 10° S visible
01 Jun 9.3 23:11:45 10° W 23:21:09 69° N 23:30:50 10° E visible
02 Jun 8.9 01:17:04 10° WNW 01:26:37 81° SSW 01:35:52 12° ESE visible
02 Jun 9.6 03:22:37 10° WNW 03:30:48 33° SW 03:33:53 27° SSW visible
02 Jun 9.3 22:49:58 10° W 22:59:20 69° N 23:08:59 10° E visible
03 Jun 8.9 00:55:19 10° WNW 01:04:51 84° SSW 01:12:53 17° ESE visible
03 Jun 9.5 03:00:48 10° WNW 03:09:06 34° SW 03:11:01 32° SSW visible
03 Jun 9.3 22:28:12 10° W 22:37:32 68° N 22:47:10 10° E visible
04 Jun 8.9 00:33:34 10° WNW 00:43:04 86° SSW 00:50:44 19° ESE visible
04 Jun 9.5 02:38:59 10° WNW 02:47:24 36° SW 02:48:55 34° SSW visible
04 Jun 9.4 22:06:25 10° W 22:15:45 68° N 22:25:20 10° E visible
05 Jun 8.9 00:11:48 10° WNW 00:21:18 88° SSW 00:28:58 19° ESE visible
05 Jun 9.4 02:17:10 10° WNW 02:25:41 38° SW 02:27:10 36° SSW visible
05 Jun 9.4 21:44:38 10° W 21:53:57 68° N 22:03:30 10° E visible
05 Jun 9.0 23:50:03 10° WNW 23:59:32 90° SW 00:07:26 18° ESE visible
06 Jun 9.4 01:55:22 10° WNW 02:03:58 40° SW 02:05:39 37° SSW visible
06 Jun 9.0 23:28:18 10° WNW 23:37:46 88° NNE 23:46:03 16° ESE visible
07 Jun 9.4 01:33:34 10° WNW 01:42:15 42° SW 01:44:16 38° SSW visible
07 Jun 9.0 23:06:32 10° WNW 23:16:00 86° NNE 23:24:46 14° ESE visible
08 Jun 9.4 01:11:47 10° WNW 01:20:32 44° SW 01:23:01 37° S visible
08 Jun 9.1 22:44:47 10° WNW 22:54:13 84° NNE 23:03:36 11° ESE visible
